"Sample Date","Sample Time","Sample Value","Units","Flow Rate","Number Channels","Micron Size 0","Counts/Channel 0","Micron Size 1","Counts/Channel 1","Micron Size 2","Counts/Channel 2","Micron Size 3","Counts/Channel 3","Micron Size 4","Counts/Channel 4","Micron Size 5","Counts/Channel 5","Micron Size 6","Counts/Channel 6","Micron Size 7","Counts/Channel 7","Micron Size 8","Counts/Channel 8","Micron Size 9","Counts/Channel 9","Micron Size 10","Counts/Channel 10","Micron Size 11","Counts/Channel 11","Micron Size 12","Counts/Channel 12","Micron Size 13","Counts/Channel 13","Micron Size 14","Counts/Channel 14","Micron Size 15","Counts/Channel 15","Micron Size 16","Counts/Channel 16","Micron Size 17","Counts/Channel 17","Micron Size 18","Counts/Channel 18","Micron Size 19","Counts/Channel 19","Micron Size 20","Counts/Channel 20","Micron Size 21","Counts/Channel 21","Micron Size 22","Counts/Channel 22","Micron Size 23","Counts/Channel 23","Micron Size 24","Counts/Channel 24","Micron Size 25","Counts/Channel 25","Micron Size 26","Counts/Channel 26","Micron Size 27","Counts/Channel 27","Micron Size 28","Counts/Channel 28","Micron Size 29","Counts/Channel 29","Micron Size 30","Counts/Channel 30","Micron Size 31","Counts/Channel 31"
"05/05/08","14:00:01",332.000,"cc",28279.070,6,0.100,128.000,0.200,107.000,0.300,93.000,0.500,4.000,1.000,0,5.000,0
"05/05/08","14:00:07",353.000,"cc",28357.674,6,0.100,134.000,0.200,108.000,0.300,108.000,0.500,3.000,1.000,0,5.000,0
"05/05/08","14:00:13",343.000,"cc",28334.043,6,0.100,131.000,0.200,116.000,0.300,94.000,0.500,2.000,1.000,0,5.000,0
"05/05/08","14:00:19",356.000,"cc",28237.516,6,0.100,138.000,0.200,155.000,0.300,63.000,0.500,0,1.000,0,5.000,0
"05/05/08","14:00:25",360.000,"cc",28306.783,6,0.100,164.000,0.200,161.000,0.300,35.000,0.500,0,1.000,0,5.000,0
"05/05/08","14:00:31",335.000,"cc",28353.457,6,0.100,134.000,0.200,146.000,0.300,53.000,0.500,2.000,1.000,0,5.000,0
"05/05/08","14:00:37",366.000,"cc",28335.356,6,0.100,148.000,0.200,179.000,0.300,39.000,0.500,0,1.000,0,5.000,0
"05/05/08","14:00:43",401.000,"cc",28316.143,6,0.100,153.000,0.200,211.000,0.300,36.000,0.500,1.000,1.000,0,5.000,0
"05/05/08","14:00:49",390.000,"cc",28278.691,6,0.100,148.000,0.200,218.000,0.300,24.000,0.500,0,1.000,0,5.000,0
"05/05/08","14:00:55",331.000,"cc",28279.359,6,0.100,144.000,0.200,164.000,0.300,23.000,0.500,0,1.000,0,5.000,0
"05/05/08","14:01:01",346.000,"cc",28365.941,6,0.100,129.000,0.200,180.000,0.300,37.000,0.500,0,1.000,0,5.000,0
"05/05/08","14:01:07",400.000,"cc",28322.510,6,0.100,155.000,0.200,209.000,0.300,36.000,0.500,0,1.000,0,5.000,0
"05/05/08","14:01:13",395.000,"cc",28321.609,6,0.100,147.000,0.200,216.000,0.300,30.000,0.500,2.000,1.000,0,5.000,0
"05/05/08","14:01:19",406.000,"cc",28318.570,6,0.100,167.000,0.200,214.000,0.300,25.000,0.500,0,1.000,0,5.000,0
"05/05/08","14:01:25",429.000,"cc",28318.650,6,0.100,176.000,0.200,219.000,0.300,34.000,0.500,0,1.000,0,5.000,0
"05/05/08","14:01:31",395.000,"cc",28253.582,6,0.100,157.000,0.200,218.000,0.300,18.000,0.500,2.000,1.000,0,5.000,0
"05/05/08","14:01:37",376.000,"cc",28332.525,6,0.100,141.000,0.200,206.000,0.300,29.000,0.500,0,1.000,0,5.000,0
"05/05/08","14:01:43",458.000,"cc",28292.516,6,0.100,190.000,0.200,237.000,0.300,31.000,0.500,0,1.000,0,5.000,0
"05/05/08","14:01:49",389.000,"cc",28263.006,6,0.100,141.000,0.200,229.000,0.300,19.000,0.500,0,1.000,0,5.000,0
"05/05/08","14:01:55",416.000,"cc",28325.582,6,0.100,151.000,0.200,227.000,0.300,37.000,0.500,1.000,1.000,0,5.000,0
"05/05/08","14:02:01",411.000,"cc",28298.568,6,0.100,155.000,0.200,228.000,0.300,28.000,0.500,0,1.000,0,5.000,0
"05/05/08","14:02:07",429.000,"cc",28330.623,6,0.100,185.000,0.200,220.000,0.300,24.000,0.500,0,1.000,0,5.000,0
"05/05/08","14:02:13",369.000,"cc",28322.457,6,0.100,147.000,0.200,195.000,0.300,27.000,0.500,0,1.000,0,5.000,0
"05/05/08","14:02:19",387.000,"cc",28423.690,6,0.100,151.000,0.200,209.000,0.300,27.000,0.500,0,1.000,0,5.000,0
"05/05/08","14:02:25",390.000,"cc",28348.600,6,0.100,137.000,0.200,219.000,0.300,33.000,0.500,1.000,1.000,0,5.000,0
"05/05/08","14:02:31",368.000,"cc",28311.664,6,0.100,135.000,0.200,204.000,0.300,28.000,0.500,1.000,1.000,0,5.000,0
"05/05/08","14:02:37",379.000,"cc",28297.059,6,0.100,154.000,0.200,196.000,0.300,29.000,0.500,0,1.000,0,5.000,0
"05/05/08","14:02:43",430.000,"cc",28327.936,6,0.100,187.000,0.200,215.000,0.300,27.000,0.500,1.000,1.000,0,5.000,0
"05/05/08","14:02:49",385.000,"cc",28319.772,6,0.100,145.000,0.200,217.000,0.300,23.000,0.500,0,1.000,0,5.000,0
"05/05/08","14:02:55",396.000,"cc",28331.484,6,0.100,153.000,0.200,218.000,0.300,24.000,0.500,1.000,1.000,0,5.000,0
"05/05/08","14:03:01",403.000,"cc",28283.613,6,0.100,155.000,0.200,224.000,0.300,24.000,0.500,0,1.000,0,5.000,0
"05/05/08","14:03:07",391.000,"cc",28367.836,6,0.100,145.000,0.200,205.000,0.300,40.000,0.500,1.000,1.000,0,5.000,0
"05/05/08","14:03:13",354.000,"cc",28312.664,6,0.100,137.000,0.200,183.000,0.300,34.000,0.500,0,1.000,0,5.000,0
"05/05/08","14:03:19",424.000,"cc",28259.693,6,0.100,186.000,0.200,210.000,0.300,27.000,0.500,1.000,1.000,0,5.000,0
"05/05/08","14:03:25",380.000,"cc",28304.047,6,0.100,145.000,0.200,201.000,0.300,33.000,0.500,1.000,1.000,0,5.000,0
"05/05/08","14:03:31",405.000,"cc",28305.863,6,0.100,149.000,0.200,214.000,0.300,41.000,0.500,1.000,1.000,0,5.000,0
"05/05/08","14:03:37",382.000,"cc",28229.205,6,0.100,145.000,0.200,191.000,0.300,45.000,0.500,1.000,1.000,0,5.000,0
"05/05/08","14:03:43",378.000,"cc",28395.670,6,0.100,149.000,0.200,175.000,0.300,53.000,0.500,1.000,1.000,0,5.000,0
"05/05/08","14:03:49",346.000,"cc",28331.201,6,0.100,149.000,0.200,159.000,0.300,36.000,0.500,2.000,1.000,0,5.000,0
"05/05/08","14:03:55",391.000,"cc",28250.410,6,0.100,170.000,0.200,175.000,0.300,46.000,0.500,0,1.000,0,5.000,0
"05/05/08","14:04:01",349.000,"cc",28328.688,6,0.100,141.000,0.200,157.000,0.300,51.000,0.500,0,1.000,0,5.000,0
"05/05/08","14:04:07",387.000,"cc",28329.590,6,0.100,169.000,0.200,163.000,0.300,54.000,0.500,1.000,1.000,0,5.000,0
"05/05/08","14:04:13",371.000,"cc",28344.541,6,0.100,140.000,0.200,171.000,0.300,60.000,0.500,0,1.000,0,5.000,0
"05/05/08","14:04:19",379.000,"cc",28354.129,6,0.100,157.000,0.200,171.000,0.300,51.000,0.500,0,1.000,0,5.000,0
"05/05/08","14:04:25",331.000,"cc",28357.750,6,0.100,125.000,0.200,165.000,0.300,41.000,0.500,0,1.000,0,5.000,0
"05/05/08","14:04:31",344.000,"cc",28262.303,6,0.100,156.000,0.200,138.000,0.300,49.000,0.500,0,1.000,1.000,5.000,0
"05/05/08","14:04:37",325.000,"cc",28339.520,6,0.100,141.000,0.200,125.000,0.300,59.000,0.500,0,1.000,0,5.000,0
"05/05/08","14:04:43",304.000,"cc",28334.594,6,0.100,119.000,0.200,112.000,0.300,73.000,0.500,0,1.000,0,5.000,0
"05/05/08","14:04:49",327.000,"cc",28314.086,6,0.100,146.000,0.200,134.000,0.300,47.000,0.500,0,1.000,0,5.000,0
"05/05/08","14:04:55",343.000,"cc",28309.031,6,0.100,142.000,0.200,132.000,0.300,69.000,0.500,0,1.000,0,5.000,0
"05/05/08","14:05:01",351.000,"cc",28311.068,6,0.100,144.000,0.200,92.000,0.300,108.000,0.500,7.000,1.000,0,5.000,0
"05/05/08","14:05:07",306.000,"cc",28362.484,6,0.100,125.000,0.200,56.000,0.300,111.000,0.500,14.000,1.000,0,5.000,0
"05/05/08","14:05:13",311.000,"cc",28323.471,6,0.100,134.000,0.200,63.000,0.300,108.000,0.500,6.000,1.000,0,5.000,0
"05/05/08","14:05:19",361.000,"cc",28226.531,6,0.100,154.000,0.200,81.000,0.300,113.000,0.500,13.000,1.000,0,5.000,0
"05/05/08","14:05:25",328.000,"cc",28310.348,6,0.100,125.000,0.200,68.000,0.300,125.000,0.500,10.000,1.000,0,5.000,0
"05/05/08","14:05:31",350.000,"cc",28406.107,6,0.100,148.000,0.200,82.000,0.300,116.000,0.500,4.000,1.000,0,5.000,0
"05/05/08","14:05:37",330.000,"cc",28288.158,6,0.100,136.000,0.200,84.000,0.300,105.000,0.500,5.000,1.000,0,5.000,0
"05/05/08","14:05:43",331.000,"cc",28301.598,6,0.100,139.000,0.200,64.000,0.300,112.000,0.500,16.000,1.000,0,5.000,0
"05/05/08","14:05:49",371.000,"cc",28337.525,6,0.100,129.000,0.200,96.000,0.300,137.000,0.500,9.000,1.000,0,5.000,0
"05/05/08","14:05:55",334.000,"cc",28343.904,6,0.100,133.000,0.200,82.000,0.300,113.000,0.500,6.000,1.000,0,5.000,0
"05/05/08","14:06:01",364.000,"cc",28280.279,6,0.100,140.000,0.200,83.000,0.300,132.000,0.500,9.000,1.000,0,5.000,0
"05/05/08","14:06:07",353.000,"cc",28348.777,6,0.100,131.000,0.200,87.000,0.300,127.000,0.500,8.000,1.000,0,5.000,0
"05/05/08","14:06:13",345.000,"cc",28287.139,6,0.100,133.000,0.200,81.000,0.300,122.000,0.500,9.000,1.000,0,5.000,0
"05/05/08","14:06:19",331.000,"cc",28350.397,6,0.100,146.000,0.200,56.000,0.300,120.000,0.500,9.000,1.000,0,5.000,0
"05/05/08","14:06:25",363.000,"cc",28206.365,6,0.100,141.000,0.200,83.000,0.300,131.000,0.500,8.000,1.000,0,5.000,0
"05/05/08","14:06:31",340.000,"cc",28366.895,6,0.100,151.000,0.200,62.000,0.300,114.000,0.500,13.000,1.000,0,5.000,0
"05/05/08","14:06:37",381.000,"cc",28395.447,6,0.100,163.000,0.200,83.000,0.300,123.000,0.500,12.000,1.000,0,5.000,0
"05/05/08","14:06:43",321.000,"cc",28275.680,6,0.100,135.000,0.200,65.000,0.300,113.000,0.500,8.000,1.000,0,5.000,0
"05/05/08","14:06:49",350.000,"cc",28349.199,6,0.100,130.000,0.200,81.000,0.300,130.000,0.500,9.000,1.000,0,5.000,0
"05/05/08","14:06:55",355.000,"cc",28317.566,6,0.100,150.000,0.200,88.000,0.300,113.000,0.500,4.000,1.000,0,5.000,0
"05/05/08","14:07:01",314.000,"cc",28303.805,6,0.100,113.000,0.200,106.000,0.300,91.000,0.500,4.000,1.000,0,5.000,0
"05/05/08","14:07:07",319.000,"cc",28311.043,6,0.100,121.000,0.200,114.000,0.300,79.000,0.500,5.000,1.000,0,5.000,0
"05/05/08","14:07:13",381.000,"cc",28332.070,6,0.100,144.000,0.200,145.000,0.300,89.000,0.500,3.000,1.000,0,5.000,0
"05/05/08","14:07:19",327.000,"cc",28256.635,6,0.100,130.000,0.200,137.000,0.300,59.000,0.500,1.000,1.000,0,5.000,0
"05/05/08","14:07:25",355.000,"cc",28330.816,6,0.100,139.000,0.200,142.000,0.300,73.000,0.500,1.000,1.000,0,5.000,0
"05/05/08","14:07:31",342.000,"cc",28401.940,6,0.100,135.000,0.200,138.000,0.300,66.000,0.500,3.000,1.000,0,5.000,0
"05/05/08","14:07:37",349.000,"cc",28275.326,6,0.100,124.000,0.200,156.000,0.300,68.000,0.500,1.000,1.000,0,5.000,0
"05/05/08","14:07:43",361.000,"cc",28310.801,6,0.100,151.000,0.200,141.000,0.300,67.000,0.500,2.000,1.000,0,5.000,0
"05/05/08","14:07:49",327.000,"cc",28301.205,6,0.100,138.000,0.200,123.000,0.300,63.000,0.500,3.000,1.000,0,5.000,0
"05/05/08","14:07:55",356.000,"cc",28356.816,6,0.100,134.000,0.200,152.000,0.300,70.000,0.500,0,1.000,0,5.000,0
"05/05/08","14:08:01",355.000,"cc",28274.031,6,0.100,132.000,0.200,141.000,0.300,81.000,0.500,1.000,1.000,0,5.000,0
"05/05/08","14:08:07",357.000,"cc",28283.316,6,0.100,138.000,0.200,139.000,0.300,79.000,0.500,0,1.000,1.000,5.000,0
"05/05/08","14:08:13",351.000,"cc",28344.652,6,0.100,139.000,0.200,135.000,0.300,76.000,0.500,1.000,1.000,0,5.000,0
"05/05/08","14:08:19",362.000,"cc",28284.059,6,0.100,118.000,0.200,147.000,0.300,92.000,0.500,5.000,1.000,0,5.000,0
"05/05/08","14:08:25",326.000,"cc",28367.852,6,0.100,127.000,0.200,74.000,0.300,118.000,0.500,7.000,1.000,0,5.000,0
"05/05/08","14:08:31",360.000,"cc",28375.936,6,0.100,142.000,0.200,104.000,0.300,112.000,0.500,2.000,1.000,0,5.000,0
"05/05/08","14:08:37",333.000,"cc",28308.930,6,0.100,124.000,0.200,106.000,0.300,99.000,0.500,4.000,1.000,0,5.000,0
"05/05/08","14:08:43",310.000,"cc",28328.297,6,0.100,116.000,0.200,96.000,0.300,97.000,0.500,1.000,1.000,0,5.000,0
"05/05/08","14:08:49",342.000,"cc",28288.719,6,0.100,131.000,0.200,119.000,0.300,91.000,0.500,1.000,1.000,0,5.000,0
"05/05/08","14:08:55",433.000,"cc",28301.131,6,0.100,164.000,0.200,159.000,0.300,109.000,0.500,1.000,1.000,0,5.000,0
"05/05/08","14:09:01",365.000,"cc",28372.027,6,0.100,146.000,0.200,146.000,0.300,73.000,0.500,0,1.000,0,5.000,0
"05/05/08","14:09:07",368.000,"cc",28302.193,6,0.100,138.000,0.200,149.000,0.300,79.000,0.500,1.000,1.000,1.000,5.000,0
"05/05/08","14:09:13",393.000,"cc",28334.277,6,0.100,130.000,0.200,190.000,0.300,71.000,0.500,2.000,1.000,0,5.000,0
"05/05/08","14:09:19",391.000,"cc",28291.266,6,0.100,145.000,0.200,171.000,0.300,73.000,0.500,1.000,1.000,1.000,5.000,0
"05/05/08","14:09:25",426.000,"cc",28284.344,6,0.100,149.000,0.200,205.000,0.300,72.000,0.500,0,1.000,0,5.000,0
"05/05/08","14:09:31",367.000,"cc",28298.123,6,0.100,153.000,0.200,162.000,0.300,51.000,0.500,1.000,1.000,0,5.000,0
"05/05/08","14:09:37",421.000,"cc",28332.897,6,0.100,144.000,0.200,213.000,0.300,64.000,0.500,0,1.000,0,5.000,0
"05/05/08","14:09:43",346.000,"cc",28371.123,6,0.100,131.000,0.200,169.000,0.300,46.000,0.500,0,1.000,0,5.000,0
"05/05/08","14:09:49",370.000,"cc",28277.568,6,0.100,143.000,0.200,184.000,0.300,42.000,0.500,1.000,1.000,0,5.000,0
"05/05/08","14:09:55",391.000,"cc",28320.115,6,0.100,148.000,0.200,197.000,0.300,46.000,0.500,0,1.000,0,5.000,0
"05/05/08","14:10:01",379.000,"cc",28282.154,6,0.100,139.000,0.200,176.000,0.300,63.000,0.500,1.000,1.000,0,5.000,0
"05/05/08","14:10:07",394.000,"cc",28310.094,6,0.100,155.000,0.200,181.000,0.300,57.000,0.500,1.000,1.000,0,5.000,0
"05/05/08","14:10:13",353.000,"cc",28297.119,6,0.100,134.000,0.200,174.000,0.300,44.000,0.500,1.000,1.000,0,5.000,0
"05/05/08","14:10:19",377.000,"cc",28333.545,6,0.100,121.000,0.200,205.000,0.300,51.000,0.500,0,1.000,0,5.000,0
"05/05/08","14:10:25",431.000,"cc",28354.830,6,0.100,160.000,0.200,215.000,0.300,56.000,0.500,0,1.000,0,5.000,0
"05/05/08","14:10:31",373.000,"cc",28242.354,6,0.100,139.000,0.200,194.000,0.300,39.000,0.500,1.000,1.000,0,5.000,0
"05/05/08","14:10:37",416.000,"cc",28243.201,6,0.100,174.000,0.200,193.000,0.300,47.000,0.500,2.000,1.000,0,5.000,0
"05/05/08","14:10:43",391.000,"cc",28284.574,6,0.100,145.000,0.200,207.000,0.300,37.000,0.500,2.000,1.000,0,5.000,0
"05/05/08","14:10:49",426.000,"cc",28316.557,6,0.100,156.000,0.200,233.000,0.300,36.000,0.500,1.000,1.000,0,5.000,0
"05/05/08","14:10:55",443.000,"cc",28336.039,6,0.100,147.000,0.200,273.000,0.300,23.000,0.500,0,1.000,0,5.000,0
"05/05/08","14:11:01",449.000,"cc",28384.336,6,0.100,168.000,0.200,251.000,0.300,30.000,0.500,0,1.000,0,5.000,0
"05/05/08","14:11:07",465.000,"cc",28342.051,6,0.100,159.000,0.200,275.000,0.300,31.000,0.500,0,1.000,0,5.000,0
"05/05/08","14:11:13",405.000,"cc",28283.551,6,0.100,125.000,0.200,251.000,0.300,28.000,0.500,1.000,1.000,0,5.000,0
"05/05/08","14:11:19",422.000,"cc",28310.574,6,0.100,156.000,0.200,234.000,0.300,32.000,0.500,0,1.000,0,5.000,0
"05/05/08","14:11:25",432.000,"cc",28273.104,6,0.100,156.000,0.200,247.000,0.300,28.000,0.500,1.000,1.000,0,5.000,0
"05/05/08","14:11:31",411.000,"cc",28343.053,6,0.100,134.000,0.200,228.000,0.300,48.000,0.500,1.000,1.000,0,5.000,0
"05/05/08","14:11:37",422.000,"cc",28371.572,6,0.100,145.000,0.200,227.000,0.300,49.000,0.500,1.000,1.000,0,5.000,0
"05/05/08","14:11:43",397.000,"cc",28324.215,6,0.100,147.000,0.200,212.000,0.300,38.000,0.500,0,1.000,0,5.000,0
"05/05/08","14:11:49",417.000,"cc",28332.709,6,0.100,121.000,0.200,243.000,0.300,52.000,0.500,1.000,1.000,0,5.000,0
"05/05/08","14:11:55",442.000,"cc",28308.981,6,0.100,146.000,0.200,251.000,0.300,44.000,0.500,1.000,1.000,0,5.000,0
"05/05/08","14:12:01",404.000,"cc",28274.301,6,0.100,147.000,0.200,221.000,0.300,36.000,0.500,0,1.000,0,5.000,0
"05/05/08","14:12:07",376.000,"cc",28303.588,6,0.100,136.000,0.200,203.000,0.300,37.000,0.500,0,1.000,0,5.000,0
"05/05/08","14:12:13",453.000,"cc",28333.451,6,0.100,174.000,0.200,240.000,0.300,38.000,0.500,1.000,1.000,0,5.000,0
"05/05/08","14:12:19",380.000,"cc",28337.459,6,0.100,127.000,0.200,214.000,0.300,39.000,0.500,0,1.000,0,5.000,0
"05/05/08","14:12:25",428.000,"cc",28274.693,6,0.100,140.000,0.200,235.000,0.300,52.000,0.500,0,1.000,1.000,5.000,0
"05/05/08","14:12:31",441.000,"cc",28378.379,6,0.100,169.000,0.200,237.000,0.300,35.000,0.500,0,1.000,0,5.000,0
"05/05/08","14:12:37",391.000,"cc",28267.670,6,0.100,124.000,0.200,225.000,0.300,42.000,0.500,0,1.000,0,5.000,0
"05/05/08","14:12:43",389.000,"cc",28337.936,6,0.100,152.000,0.200,208.000,0.300,28.000,0.500,1.000,1.000,0,5.000,0
"05/05/08","14:12:49",423.000,"cc",28324.248,6,0.100,150.000,0.200,229.000,0.300,44.000,0.500,0,1.000,0,5.000,0
"05/05/08","14:12:55",405.000,"cc",28397.748,6,0.100,129.000,0.200,241.000,0.300,35.000,0.500,0,1.000,0,5.000,0
"05/05/08","14:13:01",438.000,"cc",28311.990,6,0.100,167.000,0.200,249.000,0.300,22.000,0.500,0,1.000,0,5.000,0
"05/05/08","14:13:07",477.000,"cc",28246.629,6,0.100,162.000,0.200,283.000,0.300,32.000,0.500,0,1.000,0,5.000,0
"05/05/08","14:13:13",433.000,"cc",28255.633,6,0.100,136.000,0.200,268.000,0.300,29.000,0.500,0,1.000,0,5.000,0
"05/05/08","14:13:19",435.000,"cc",28279.246,6,0.100,156.000,0.200,239.000,0.300,40.000,0.500,0,1.000,0,5.000,0
"05/05/08","14:13:25",414.000,"cc",28281.842,6,0.100,133.000,0.200,238.000,0.300,41.000,0.500,2.000,1.000,0,5.000,0
"05/05/08","14:13:31",392.000,"cc",28339.490,6,0.100,147.000,0.200,199.000,0.300,46.000,0.500,0,1.000,0,5.000,0
"05/05/08","14:13:37",424.000,"cc",28288.148,6,0.100,155.000,0.200,222.000,0.300,45.000,0.500,2.000,1.000,0,5.000,0
"05/05/08","14:13:43",426.000,"cc",28370.166,6,0.100,157.000,0.200,209.000,0.300,57.000,0.500,3.000,1.000,0,5.000,0
"05/05/08","14:13:49",413.000,"cc",28297.016,6,0.100,147.000,0.200,212.000,0.300,54.000,0.500,0,1.000,0,5.000,0
"05/05/08","14:13:55",447.000,"cc",28287.129,6,0.100,128.000,0.200,257.000,0.300,61.000,0.500,1.000,1.000,0,5.000,0
"05/05/08","14:14:01",415.000,"cc",28333.707,6,0.100,138.000,0.200,224.000,0.300,53.000,0.500,0,1.000,0,5.000,0
"05/05/08","14:14:07",410.000,"cc",28363.953,6,0.100,137.000,0.200,234.000,0.300,37.000,0.500,2.000,1.000,0,5.000,0
"05/05/08","14:14:13",432.000,"cc",28343.912,6,0.100,151.000,0.200,229.000,0.300,50.000,0.500,2.000,1.000,0,5.000,0
"05/05/08","14:14:19",888.000,"cc",28376.098,6,0.100,317.000,0.200,273.000,0.300,96.000,0.500,72.000,1.000,129.000,5.000,1.000
"05/05/08","14:14:25",392.000,"cc",28305.854,6,0.100,139.000,0.200,206.000,0.300,45.000,0.500,1.000,1.000,1.000,5.000,0
"05/05/08","14:14:31",465.000,"cc",28298.863,6,0.100,138.000,0.200,200.000,0.300,68.000,0.500,16.000,1.000,43.000,5.000,0
"05/05/08","14:14:37",546.000,"cc",28295.535,6,0.100,216.000,0.200,216.000,0.300,65.000,0.500,17.000,1.000,32.000,5.000,0
"05/05/08","14:14:43",679.000,"cc",28239.793,6,0.100,217.000,0.200,247.000,0.300,97.000,0.500,28.000,1.000,85.000,5.000,5.000
"05/05/08","14:14:49",1108.000,"cc",28321.531,6,0.100,348.000,0.200,305.000,0.300,127.000,0.500,93.000,1.000,230.000,5.000,5.000
"05/05/08","14:14:55",972.000,"cc",28330.877,6,0.100,316.000,0.200,278.000,0.300,122.000,0.500,55.000,1.000,200.000,5.000,1.000
"05/05/08","14:15:01",1304.000,"cc",28335.779,6,0.100,362.000,0.200,350.000,0.300,170.000,0.500,125.000,1.000,295.000,5.000,2.000
"05/05/08","14:15:07",1024.000,"cc",28324.842,6,0.100,355.000,0.200,264.000,0.300,118.000,0.500,75.000,1.000,210.000,5.000,2.000
"05/05/08","14:15:13",831.000,"cc",28236.313,6,0.100,274.000,0.200,237.000,0.300,112.000,0.500,61.000,1.000,144.000,5.000,3.000
"05/05/08","14:15:19",6012.000,"cc",28068.676,6,0.100,4935.000,0.200,514.000,0.300,215.000,0.500,178.000,1.000,161.000,5.000,9.000
"05/05/08","14:15:25",1503.000,"cc",27544.322,6,0.100,717.000,0.200,309.000,0.300,176.000,0.500,124.000,1.000,175.000,5.000,2.000
"05/05/08","14:15:31",770.000,"cc",27445.594,6,0.100,289.000,0.200,174.000,0.300,130.000,0.500,52.000,1.000,125.000,5.000,0
"05/05/08","14:15:37",491.000,"cc",27172.621,6,0.100,180.000,0.200,113.000,0.300,114.000,0.500,36.000,1.000,48.000,5.000,0
"05/05/08","14:15:43",942.000,"cc",27107.775,6,0.100,296.000,0.200,139.000,0.300,200.000,0.500,114.000,1.000,190.000,5.000,3.000
"05/05/08","14:15:49",412.000,"cc",27042.748,6,0.100,162.000,0.200,75.000,0.300,126.000,0.500,46.000,1.000,3.000,5.000,0
"05/05/08","14:15:55",1667.000,"cc",27000.350,6,0.100,1292.000,0.200,149.000,0.300,151.000,0.500,53.000,1.000,14.000,5.000,8.000
"05/05/08","14:16:01",1521.000,"cc",26532.928,6,0.100,867.000,0.200,319.000,0.300,207.000,0.500,106.000,1.000,22.000,5.000,0
"05/05/08","14:16:07",408.000,"cc",26901.404,6,0.100,163.000,0.200,73.000,0.300,127.000,0.500,44.000,1.000,1.000,5.000,0
"05/05/08","14:16:13",354.000,"cc",26957.945,6,0.100,135.000,0.200,69.000,0.300,103.000,0.500,47.000,1.000,0,5.000,0
"05/05/08","14:16:19",395.000,"cc",27036.775,6,0.100,158.000,0.200,65.000,0.300,119.000,0.500,53.000,1.000,0,5.000,0
"05/05/08","14:16:25",348.000,"cc",27059.910,6,0.100,118.000,0.200,60.000,0.300,129.000,0.500,41.000,1.000,0,5.000,0
"05/05/08","14:16:31",400.000,"cc",27062.465,6,0.100,145.000,0.200,75.000,0.300,134.000,0.500,46.000,1.000,0,5.000,0
"05/05/08","14:16:37",359.000,"cc",27087.203,6,0.100,138.000,0.200,56.000,0.300,123.000,0.500,42.000,1.000,0,5.000,0
"05/05/08","14:16:43",393.000,"cc",27223.797,6,0.100,155.000,0.200,62.000,0.300,154.000,0.500,22.000,1.000,0,5.000,0
"05/05/08","14:16:49",365.000,"cc",27403.606,6,0.100,126.000,0.200,61.000,0.300,139.000,0.500,39.000,1.000,0,5.000,0
"05/05/08","14:16:55",369.000,"cc",27593.295,6,0.100,138.000,0.200,66.000,0.300,136.000,0.500,29.000,1.000,0,5.000,0
"05/05/08","14:17:01",365.000,"cc",27814.652,6,0.100,127.000,0.200,72.000,0.300,135.000,0.500,31.000,1.000,0,5.000,0
"05/05/08","14:17:07",368.000,"cc",28257.504,6,0.100,118.000,0.200,74.000,0.300,148.000,0.500,28.000,1.000,0,5.000,0
"05/05/08","14:17:13",358.000,"cc",28178.385,6,0.100,135.000,0.200,71.000,0.300,127.000,0.500,24.000,1.000,1.000,5.000,0
"05/05/08","14:17:19",339.000,"cc",27878.537,6,0.100,122.000,0.200,55.000,0.300,136.000,0.500,25.000,1.000,1.000,5.000,0
"05/05/08","14:17:25",349.000,"cc",28110.438,6,0.100,137.000,0.200,60.000,0.300,133.000,0.500,19.000,1.000,0,5.000,0
"05/05/08","14:17:31",355.000,"cc",28649.424,6,0.100,148.000,0.200,64.000,0.300,125.000,0.500,18.000,1.000,0,5.000,0
"05/05/08","14:17:37",341.000,"cc",28803.707,6,0.100,123.000,0.200,51.000,0.300,148.000,0.500,19.000,1.000,0,5.000,0
"05/05/08","14:17:43",389.000,"cc",28835.797,6,0.100,152.000,0.200,89.000,0.300,131.000,0.500,17.000,1.000,0,5.000,0
"05/05/08","14:17:49",349.000,"cc",28953.639,6,0.100,133.000,0.200,58.000,0.300,140.000,0.500,18.000,1.000,0,5.000,0
"05/05/08","14:17:55",346.000,"cc",28842.084,6,0.100,128.000,0.200,61.000,0.300,134.000,0.500,23.000,1.000,0,5.000,0
"05/05/08","14:18:01",333.000,"cc",28830.965,6,0.100,134.000,0.200,66.000,0.300,109.000,0.500,24.000,1.000,0,5.000,0
"05/05/08","14:18:07",340.000,"cc",28847.383,6,0.100,139.000,0.200,57.000,0.300,122.000,0.500,22.000,1.000,0,5.000,0
"05/05/08","14:18:13",369.000,"cc",28869.229,6,0.100,132.000,0.200,65.000,0.300,137.000,0.500,35.000,1.000,0,5.000,0
"05/05/08","14:18:19",353.000,"cc",28805.154,6,0.100,128.000,0.200,70.000,0.300,127.000,0.500,28.000,1.000,0,5.000,0
"05/05/08","14:18:25",348.000,"cc",28730.063,6,0.100,135.000,0.200,60.000,0.300,126.000,0.500,27.000,1.000,0,5.000,0
"05/05/08","14:18:31",318.000,"cc",28772.938,6,0.100,135.000,0.200,51.000,0.300,111.000,0.500,21.000,1.000,0,5.000,0
"05/05/08","14:18:37",334.000,"cc",28800.424,6,0.100,129.000,0.200,52.000,0.300,128.000,0.500,25.000,1.000,0,5.000,0
"05/05/08","14:18:43",353.000,"cc",28890.662,6,0.100,148.000,0.200,39.000,0.300,132.000,0.500,34.000,1.000,0,5.000,0
"05/05/08","14:18:49",367.000,"cc",28815.772,6,0.100,139.000,0.200,69.000,0.300,135.000,0.500,24.000,1.000,0,5.000,0
"05/05/08","14:18:55",360.000,"cc",28776.635,6,0.100,142.000,0.200,71.000,0.300,133.000,0.500,14.000,1.000,0,5.000,0
"05/05/08","14:19:01",360.000,"cc",28734.570,6,0.100,133.000,0.200,69.000,0.300,139.000,0.500,19.000,1.000,0,5.000,0
"05/05/08","14:19:07",355.000,"cc",28674.848,6,0.100,118.000,0.200,66.000,0.300,151.000,0.500,19.000,1.000,1.000,5.000,0
"05/05/08","14:19:13",355.000,"cc",28714.627,6,0.100,143.000,0.200,60.000,0.300,133.000,0.500,18.000,1.000,1.000,5.000,0
"05/05/08","14:19:19",321.000,"cc",28707.162,6,0.100,120.000,0.200,60.000,0.300,119.000,0.500,22.000,1.000,0,5.000,0